Location: Calmejanne
(44.7523°N, 1.9418°E)
Time: 16:04:27
(UTC+00:00)

Cosmos 2263 Rocket - Pass Details

Date: 14 May 2026
Orbit: 824 x 846 km, 71.0° (Epoch: 10 June)

Event Time Altitude Azimuth Distance (km) Brightness Sun altitude
Exits shadow 23:20:44 12° 92° (E) 2,268 4.3 -26.1°
Drops below altitude 10° 23:22:33 10° 73° (ENE) 2,437 4.7 -26.2°
Sets 23:26:29 0° 45° (NE) 3,372 5.9 -26.2°
